Location: �perlecques
(50.8057°N, 2.1521°E)
Time: 07:44:33
(UTC+00:00)

STARS - Pass Details

Date: 03 April 2023
Orbit: 616 x 630 km, 98.1° (Epoch: 03 June)

Event Time Altitude Azimuth Distance (km) Brightness Sun altitude
Rises 22:52:51 0° 18° (NNE) 2,918 ? -32.1°
Reaches altitude 10° 22:55:06 10° 24° (NNE) 2,009 ? -32.3°
Enters shadow 22:56:27 19° 30° (NNE) 1,495 ? -32.3°
